Savannah Hunter, GA

9:35 PM EDT on April 29, 2017 (GMT -0400)
Hunter Army Air Field

Weather History for KSVN - May, 2014

Change the Weather History Date:

Saturday, May 10, 2014

  Actual Average Record
Temperature  
Mean Temperature 78 °F -  
Max Temperature 84 °F 81 °F 95 °F (2003)
Min Temperature 72 °F 60 °F 53 °F (1997)
Cooling Degree Days 13    
Growing Degree Days 28 (Base 50)    
Moisture  
Dew Point 69 °F    
Average Humidity 78    
Maximum Humidity 93    
Minimum Humidity 58    
Precipitation  
Precipitation 0.00 in - - ()
Sea Level Pressure  
Sea Level Pressure 30.11 in    
Wind  
Wind Speed 8 mph (South)    
Max Wind Speed 17 mph    
Max Gust Speed 26 mph    
Visibility 10 miles    
Events Rain    
Averages and records for this station are not official NWS values.
T = Trace of Precipitation, MM = Missing Value Source: NWS Daily Summary

Daily Weather History Graph

Daily Weather History Graph

Search for Another Location

Airport or City:

Trip Planner

Search our weather history database for the weather conditions in past years. The results will help you decide how hot, cold, wet, or windy it might be!

Date:

Astronomy

May. 10, 2014 Rise Set
Actual Time 6:30 AM EDT 8:11 PM EDT
Civil Twilight 6:04 AM EDT 8:38 PM EDT
Nautical Twilight 5:32 AM EDT 9:10 PM EDT
Astronomical Twilight 4:58 AM EDT 9:43 PM EDT
Moon 4:20 PM EDT (5/10) 3:47 AM EDT (5/10)
Length of Visible Light 14h 33m
Length of Day
13h 40m
Waxing Gibbous, 82% of the Moon is Illuminated
May 10
Waxing Gibbous
May 14
Full
May 21
Last Quarter
May 28
New
Jun 5
First Quarter

Hourly Weather History & Observations

Time (EDT) Temp. Heat Index Dew Point Humidity Pressure Visibility Wind Dir Wind Speed Gust Speed Precip Events Conditions
12:58 AM 73.8 °F - 71.1 °F 91% 30.13 in 10.0 mi SSE 5.8 mph - N/A   Overcast
1:58 AM 73.0 °F - 70.5 °F 92% 30.11 in 10.0 mi SSE 6.9 mph - N/A   Partly Cloudy
2:58 AM 72.9 °F - 70.2 °F 91% 30.10 in 10.0 mi Variable 5.8 mph - N/A   Mostly Cloudy
3:58 AM 73.0 °F - 70.3 °F 91% 30.09 in 10.0 mi South 8.1 mph - N/A   Overcast
4:58 AM 73.0 °F - 70.5 °F 92% 30.10 in 10.0 mi South 6.9 mph - N/A   Partly Cloudy
5:58 AM 72.5 °F - 70.3 °F 93% 30.11 in 10.0 mi South 6.9 mph - N/A   Partly Cloudy
6:58 AM 72.5 °F - 70.3 °F 93% 30.13 in 10.0 mi South 4.6 mph - N/A   Clear
7:23 AM 73.4 °F - 69.8 °F 88% 30.13 in 10.0 mi Variable 5.8 mph - N/A   Mostly Cloudy
7:38 AM 73.4 °F - 69.8 °F 88% 30.14 in 10.0 mi SSW 6.9 mph - N/A   Scattered Clouds
7:43 AM 73.4 °F - 69.8 °F 88% 30.14 in 10.0 mi Variable 5.8 mph - N/A   Mostly Cloudy
7:53 AM 75.2 °F - 69.8 °F 83% 30.14 in 10.0 mi SW 4.6 mph - N/A   Scattered Clouds
7:58 AM 74.8 °F - 70.7 °F 87% 30.16 in 10.0 mi SSW 5.8 mph - N/A   Partly Cloudy
8:58 AM 76.5 °F - 69.8 °F 80% 30.16 in 10.0 mi SSW 10.4 mph - N/A   Scattered Clouds
9:58 AM 78.1 °F - 67.8 °F 71% 30.16 in 10.0 mi South 11.5 mph - N/A   Clear
10:58 AM 81.1 °F 83.9 °F 68.0 °F 64% 30.15 in 10.0 mi South 11.5 mph 17.3 mph N/A   Scattered Clouds
11:58 AM 82.4 °F 85.2 °F 67.8 °F 61% 30.15 in 10.0 mi South 15.0 mph 25.3 mph N/A   Partly Cloudy
12:58 PM 83.5 °F 86.2 °F 67.1 °F 58% 30.14 in 10.0 mi South 17.3 mph 26.5 mph N/A   Scattered Clouds
1:58 PM 84.0 °F 87.0 °F 68.0 °F 58% 30.11 in 10.0 mi SSE 13.8 mph 23.0 mph N/A   Partly Cloudy
1:59 PM 84.2 °F 87.3 °F 68.0 °F 58% 30.11 in 10.0 mi South 15.0 mph 23.0 mph N/A   Partly Cloudy
2:58 PM 82.9 °F 85.6 °F 67.3 °F 59% 30.10 in 10.0 mi South 12.7 mph 20.7 mph N/A   Partly Cloudy
3:58 PM 82.2 °F 85.1 °F 68.0 °F 62% 30.08 in 10.0 mi SSE 13.8 mph 24.2 mph N/A   Partly Cloudy
4:58 PM 80.8 °F 83.6 °F 68.4 °F 66% 30.06 in 10.0 mi SSE 13.8 mph 19.6 mph N/A   Scattered Clouds
5:58 PM 79.3 °F - 68.5 °F 69% 30.06 in 10.0 mi South 12.7 mph - N/A   Partly Cloudy
6:58 PM 78.4 °F - 68.9 °F 72% 30.05 in 10.0 mi South 10.4 mph - N/A   Mostly Cloudy
7:58 PM 76.6 °F - 68.5 °F 76% 30.06 in 10.0 mi South 8.1 mph - N/A   Scattered Clouds
8:58 PM 76.1 °F - 67.6 °F 75% 30.07 in 10.0 mi South 9.2 mph - N/A   Overcast
9:58 PM 75.7 °F - 67.5 °F 75% 30.09 in 10.0 mi South 8.1 mph - N/A   Mostly Cloudy
10:58 PM 74.1 °F - 69.8 °F 86% 30.11 in 10.0 mi South 9.2 mph - 0.00 in Rain Light Rain
11:32 PM 73.4 °F - 69.8 °F 88% 30.11 in 10.0 mi WNW 8.1 mph - N/A   Partly Cloudy
11:58 PM 72.3 °F - 69.6 °F 91% 30.12 in 10.0 mi West 3.5 mph - 0.00 in   Clear